Regional Weather Roundup
Issued by NWS Wilmington, NC

Home | Current Version | Previous Version | Text Only | Print | Product List | Glossary On
Versions: 1 2 3 4 5 6 7 8 9 10 11 12 13 14 15 16 17 18 19 20 21 22 23 24 25 26 27 28 29 30 31 32 33 34 35 36 37 38 39 40 41 42 43 44 45 46 47 48 49 50
000
ASUS42 KILM 020210
RWRILM
RWRILM
REGIONAL HOURLY WEATHER ROUNDUP
NATIONAL WEATHER SERVICE WILMINGTON NC
1000 PM EDT FRI AUG 01 2014

NOTE: "FAIR" INDICATES FEW OR NO CLOUDS BELOW 12,000 FEET WITH NO
SIGNIFICANT WEATHER AND/OR OBSTRUCTIONS TO VISIBILITY.

...............WFO WILMINGTON COUNTY WARNING AREA...............

......COASTAL NC AND SC COUNTIES......

CITY           SKY/WX    TMP DP  RH WIND       PRES   REMARKS
WILMINGTON     MOCLDY    77  73  87 CALM      30.07R
SOUTHPORT      CLOUDY    77  73  86 CALM      30.06R
N MYRTLE BEACH CLOUDY    79  72  79 S5        30.05R
MYRTLE BEACH   PTCLDY    77  72  83 S5        30.05R

......INLAND NC AND SC COUNTIES.......

CITY           SKY/WX    TMP DP  RH WIND       PRES   REMARKS
LUMBERTON      CLOUDY    72  69  90 NE7       30.06R
ELIZABETHTOWN  LGT RAIN  74  73  99 CALM      30.06R
WHITEVILLE     CLOUDY    76  73  93 CALM      30.06R
FLORENCE       LGT RAIN  74  71  91 NE10      30.05R
DARLINGTON     CLOUDY    72  66  83 N6        30.09R

....................REST OF NORTH CAROLINA......................

.........EASTERN NC.........

CITY           SKY/WX    TMP DP  RH WIND       PRES   REMARKS
CAPE HATTERAS  CLOUDY    76  73  91 SE16G25   30.09F
JACKSONVILLE   MOCLDY    75  72  88 CALM      30.08R
MOREHEAD CITY  CLOUDY    78  74  87 SE6       30.08R
KENANSVILLE    CLOUDY    75  73  96 CALM      30.08R
NEW BERN       MOCLDY    76  72  87 SE7       30.09R
ELIZABETH CITY LGT RAIN  74  72  93 SE6       30.10R

.........CENTRAL NC.........

CITY           SKY/WX    TMP DP  RH WIND       PRES   REMARKS
RALEIGH DURHAM DRIZZLE   65  62  90 NE8       30.12R
ROCKY MOUNT    CLOUDY    67  66  97 NE7       30.09R
ROANOKE RAPIDS NOT AVBL
FAYETTEVILLE   CLOUDY    70  68  93 N8        30.07R
HOFFMAN        CLOUDY    68  66  96 N8        30.10R

.........WESTERN NC.........

CITY           SKY/WX    TMP DP  RH WIND       PRES   REMARKS
CHARLOTTE      CLOUDY    67  64  90 N7        30.12R
GREENSBORO     CLOUDY    64  63  96 NE9       30.13R
HICKORY        NOT AVBL
BOONE          NOT AVBL
ASHEVILLE      NOT AVBL

.....................REST OF SOUTH CAROLINA.....................

.........EASTERN SC.........

CITY           SKY/WX    TMP DP  RH WIND       PRES   REMARKS
CHARLESTON     PTCLDY    78  72  81 E3        30.03R
BEAUFORT MCAS  CLOUDY    79  75  87 CALM      30.04R
HILTON HEAD    NOT AVBL

.........CENTRAL SC.........

CITY           SKY/WX    TMP DP  RH WIND       PRES   REMARKS
COLUMBIA       CLOUDY    74  68  81 N3        30.06R
ORANGEBURG     LGT RAIN  74  71  91 NW5       30.04S
SUMTER SHAW    CLOUDY    75  73  92 NW5       30.04R

.........WESTERN SC.........

CITY           SKY/WX    TMP DP  RH WIND       PRES   REMARKS
GREENVILLE     NOT AVBL
ROCK HILL      CLOUDY    66  64  93 N7        30.12R
ANDERSON       CLOUDY    68  63  84 NE9       30.11R
CLEMSON        NOT AVBL
GREENWOOD      CLOUDY    68  63  84 NE9       30.11R


...................COASTAL AND OFFSHORE REPORTS..................

................LOCAL PIERS AND NC RESERVE................


STATION/POSITION TIME  SKY/WX   TEMP    WIND        PRES    VSBY
                                AIR SEA DIR/SP/G
                 (UTC)          (F)     (DEG/KT/KT) (MB)    (MI)
JOHNY MRCER PIER 0200            79 83  150/ 11/ 13 1017.3R
NC RESRV MASNBRO 0100            78     160/  3     1017.0S
OCEAN CREST PIER 0200            80 82  150/  7/  8 1017.0R
SPRINGMAID  PIER 0200            80 82  160/  7/  8 1017.4S


................COASTAL AND OFFSHORE BUOYS................


STATION/POSITION TIME  SKY/WX   TEMP    WIND        PRES    VSBY
                                AIR SEA DIR/SP/G
                 (UTC)          (F)     (DEG/KT/KT) (MB)    (MI)
DIMNDSHOAL 41025 0200                   VRB 16/ 17  1018.7F
WVE H/P(F/S)=  4/ 6 WND WVE H/P(F/S)=  3/ 6 SWL H/P/D(F/S/D)=  2/ 90/ 9

CAPE LOOKOUT     0100            78     120/ 17/ 18 1017.9R
ONSLOW BAY 41036 0200            80 81  180/ 10/ 12 1018.5R
WVE H/P(F/S)=  4/ 6 WND WVE H/P(F/S)=  2/ 4 SWL H/P/D(F/S/D)=  3/150/ 6

5 WRITEBCH 41038 0100            76 81  150/ 10/ 12   N/A
MASONBORO  41110 0200               81                N/A
WVE H/P(F/S)=  3/ 5 WND WVE H/P(F/S)=  3/ 5

WILM HARBR 41108 NOT AVBL
27WRITEBCH 41037 0100            76 81  150/  8/ 10 1017.8R
FRYING PAN 41013 NOT AVBL
SUNST NRSH 41024 0100            81     170/  8/ 10 1017.0R
CAPRS NRSH 41029 0100            79     200/  4/  6   N/A
EDISTO     41004 0200            82 82  180/ 12/ 16 1015.7R
WVE H/P(F/S)=  4/ 5 WND WVE H/P(F/S)=  3/ 5 SWL H/P/D(F/S/D)=  2/ 7



..........OFFSHORE BUOYS BEYOND 100 NM OFFSHORE...........
.....IN A TRIANGLE---HAT TO BERMUDA TO BAHAMAS TO HAT.....


STATION/POSITION TIME  SKY/WX   TEMP    WIND        PRES    VSBY
                                AIR SEA DIR/SP/G
                 (UTC)          (F)     (DEG/KT/KT) (MB)    (MI)
150E HAT   41001 NOT AVBL
W BERMUDA  41048 0146            81 82  100/ 12/ 16 1021.9R
WVE H/P(F/S)=  4/ 6 WND WVE H/P(F/S)=  3/ 6 SWL H/P/D(F/S/D)=  2/ 90/10

ATLANTIC S 41049 0115            82 83   60/ 10/ 12 1020.0
WVE H/P(F/S)=  3/ 6 WND WVE H/P(F/S)=  2/ 4 SWL H/P/D(F/S/D)=  3/ 70/ 6

E BAHAMAS  41046 0110            83 84  100/ 14/ 17 1017.6
WVE H/P(F/S)=  4/ 7 WND WVE H/P(F/S)=  3/ 6 SWL H/P/D(F/S/D)=  2/120/ 7

NE BAHAMAS 41047 NOT AVBL
120E CANVRL41010 0200            83 85  110/ 14/ 16 1016.3S
WVE H/P(F/S)=  2/ 7 WND WVE H/P(F/S)=  2/ 4 SWL H/P/D(F/S/D)=  2/ 90/ 7


END



USA.gov is the U.S. government's official web portal to all federal, state and local government web resources and services.